Regional Weather Roundup
Issued by NWS

Home | Current Version | Previous Version | Graphics & Text | Print | Product List | Glossary On
Versions: 1 2 3 4 5 6 7 8 9 10 11 12 13 14 15 16 17 18 19 20 21 22 23 24 25 26 27 28 29 30 31 32 33 34 35 36 37 38 39 40 41 42 43 44 45 46 47 48 49 50
000
ASUS43 KIND 282059
RWRIN

WEATHER ROUNDUP FOR INDIANA
NATIONAL WEATHER SERVICE INDIANAPOLIS IN
500 PM EDT THU MAY 28 2015

NOTE: "FAIR" INDICATES FEW OR NO CLOUDS BELOW 12,000 FEET WITH NO
SIGNIFICANT WEATHER AND/OR OBSTRUCTIONS TO VISIBILITY.

* - STATION DOES NOT REPORT WEATHER SUCH AS PRECIPITATION OR FOG.

+ - STATION NOT QUALITY CONTROLLED BY THE NATIONAL WEATHER SERVICE.
    USE DATA WITH CAUTION...ESPECIALLY DEWPOINT AND RELATIVE
    HUMIDITY OBSERVATIONS.

INZ001>003-010>013-019-020-282200-
NORTHWEST INDIANA

CITY           SKY/WX    TMP DP  RH WIND       PRES   REMARKS
GARY /AIRPORT/ PTSUNNY   79  57  47 N8        30.15F
RENSSELAER +   SUNNY     82  54  36 E9G20     30.14F

$$

LMZ046-743>745-282200-
SOUTHERN LAKE MICHIGAN

STATION/POSITION TIME  TEMP    WIND        PRES    WAVE
                       AIR SEA DIR/SP/G            HT
                 (UTC) (F)     (DEG/KT/KT) (MB)    (FT)
BURNS HARBOR     2000   65     350/  3/  8 1021.3F
MICHIGAN CITY    2000   79     120/ 11/ 16   N/A
5NW MICH CITY    2000   62 56   40/  8/ 10   N/A     1

$$

INZ004-005-014>016-021>024-282200-
NORTH CENTRAL INDIANA

CITY           SKY/WX    TMP DP  RH WIND       PRES   REMARKS
GOSHEN         SUNNY     81  57  43 SE12      30.18S
SOUTH BEND     SUNNY     82  51  34 SE15G22   30.17S
WARSAW +       SUNNY     79  55  44 SE9       30.18S

$$

INZ006>009-017-018-025>027-282200-
NORTHEAST INDIANA

CITY           SKY/WX    TMP DP  RH WIND       PRES   REMARKS
ANGOLA *+      SUNNY     81  57  44 SE13      30.20S
FORT WAYNE     MOSUNNY   81  59  47 E13G22    30.17F

$$

INZ028-029-035-036-043>045-051>053-282200-
WEST CENTRAL INDIANA

CITY           SKY/WX    TMP DP  RH WIND       PRES   REMARKS
CRAWFORDSVL +  MOSUNNY   82  42  24 S8        30.14S
GREENCASTLE +  MOSUNNY   82  54  36 S7        30.14F
LAFAYETTE      SUNNY     81  54  39 S9        30.12F
TERRE HAUTE    SUNNY     86  61  42 S10       30.11F

$$

INZ030>032-037>040-046>048-054>057-064-065-282200-
CENTRAL INDIANA

CITY           SKY/WX    TMP DP  RH WIND       PRES   REMARKS
COLUMBUS       MOSUNNY   81  59  47 S10       30.16F
GREENWOOD *+   SUNNY     84  55  37 S12       30.16F
INDIANAPOLIS   MOSUNNY   83  58  42 S10G16    30.13F
-EAGLE CREEK   MOSUNNY   83  57  41 S6        30.14F
KOKOMO *+      PTSUNNY   82  57  42 S10       30.14F
MT COMFORT *+  MOSUNNY   84  43  23 S10       30.16S
SHELBYVILLE    MOSUNNY   85  60  42 S9        30.14F

$$

INZ033-034-041-042-049-050-058-059-282200-
EAST CENTRAL INDIANA

CITY           SKY/WX    TMP DP  RH WIND       PRES   REMARKS
MUNCIE         MOSUNNY   83  55  38 SE8       30.15F

$$

INZ060-061-067>069-081>083-085>088-282200-
SOUTHWEST INDIANA

CITY           SKY/WX    TMP DP  RH WIND       PRES   REMARKS
EVANSVILLE     MOSUNNY   84  65  52 S5        30.12F
HUNTINGBURG *+ PTSUNNY   81  66  61 E3        30.13F

$$

INZ062-063-066-070>080-084-089>092-282200-
SOUTH CENTRAL AND SOUTHEAST INDIANA

CITY           SKY/WX    TMP DP  RH WIND       PRES   REMARKS
BLOOMINGTON    MOSUNNY   83  61  47 SW8       30.14F
MADISON *+     SUNNY     81  61  50 S7        30.20S
SEYMOUR +      SUNNY     86  61  42 SE9       30.15F

$$




USA.gov is the U.S. government's official web portal to all federal, state and local government web resources and services.